Content
SEND FEEDBACK

Daily
Averages
Monthly
Summary
Canada

MONTREAL, QUEBEC


Home > North America > Canada > Quebec
Elevation: 118 feet     Latitude: 45 28N     Longitude: 073 45W

WEATHER
 
SELECT A DAY
Number of Records: 198,022;   Date Range: 1/1/95 - 7/20/14
 
SHARE

PRINT THIS DATA

[ ← Previous Day ]
WEATHER ALMANAC - APRIL 23, 2013
[ Next Day → ]
[ °C ]   °F
Weather ElementAverageHighLow
Temperature47.9 °F57.2 °F (4:00 pm)37.4 °F (6:00 am)
Dewpoint27 °F37.4 °F (7:00 pm)19.4 °F (12:00 pm)
Humidity43.8 %66 % (10:00 pm)17 % (2:00 pm)
Barometer30.32 in30.48 in (1:00 am)30.11 in (11:00 pm)
Wind Speed14.3 mph18.4 mph (3:00 am)
Wind Gust27.6 mph (7:00 pm)
Weather ElementAverage
Visibility24.8 mi
Wind DirectionSE (136.3 °)

Weather ElementTotal
Precipitation---
Heating Degree Days17.7 (Base 65)
Averaged from 27 records on April 23, 2013
WEATHER CONDITIONS BREAKOUT
WIND DIRECTION BREAKOUT
WEATHER BY HOUR - APRIL 23, 2013
[ °C ]   °F
Local TimeTemperatureDewpointHumidityBarometerVisibilityWind DirectionWind SpeedGust SpeedPrecipitationEventsConditions
1:00 AM44.6 °F21.2 °F39 %30.48 in15.0 miSE (130°)15.0 mphClear
2:00 AM43.0 °F21.0 °F28 %30.47 in15.0 miSE (140°)16.1 mph
2:00 AM42.8 °F21.2 °F42 %30.47 in15.0 miSE (140°)16.1 mph23.0 mphClear
3:00 AM41.0 °F23.0 °F49 %30.46 in15.0 miSE (140°)18.4 mph25.3 mphClear
4:00 AM41.0 °F23.0 °F49 %30.45 in15.0 miSE (130°)13.8 mph21.9 mphClear
5:00 AM39.2 °F24.8 °F56 %30.45 in15.0 miSE (130°)10.4 mphClear
6:00 AM37.4 °F24.8 °F60 %30.45 in30.0 miSE (130°)12.7 mphClear
7:00 AM39.2 °F23.0 °F52 %30.45 in30.0 miSE (130°)10.4 mphClear
8:00 AM41.0 °F25.0 °F39 %30.45 in28.0 miSE (130°)12.7 mph
8:00 AM41.0 °F24.8 °F53 %30.45 in30.0 miESE (120°)10.4 mph19.6 mphClear
9:00 AM44.6 °F24.8 °F46 %30.43 in30.0 miSE (140°)12.7 mphClear
10:00 AM46.4 °F24.8 °F43 %30.42 in30.0 miSE (130°)10.4 mph18.4 mphClear
11:00 AM48.2 °F23.0 °F37 %30.39 in30.0 miESE (120°)15.0 mphClear
12:00 PM51.8 °F19.4 °F28 %30.35 in30.0 miSSE (150°)17.3 mph24.2 mphClear
1:00 PM53.6 °F19.4 °F26 %30.32 in30.0 miSE (140°)15.0 mph20.7 mphClear
2:00 PM54.0 °F22.0 °F17 %30.29 in28.0 miSE (140°)16.1 mph
2:00 PM53.6 °F21.2 °F28 %30.29 in30.0 miSSE (150°)16.1 mph25.3 mphClear
3:00 PM55.4 °F26.6 °F33 %30.27 in30.0 miSSE (150°)15.0 mph23.0 mphPartly Cloudy
4:00 PM57.2 °F28.4 °F33 %30.22 in30.0 miSE (140°)15.0 mph23.0 mphClear
5:00 PM57.2 °F32.0 °F38 %30.20 in30.0 miSSE (160°)16.1 mphClear
6:00 PM57.2 °F35.6 °F44 %30.18 in30.0 miSSE (150°)16.1 mph24.2 mphPartly Cloudy
7:00 PM55.4 °F37.4 °F51 %30.17 in30.0 miSE (140°)16.1 mph27.6 mphPartly Cloudy
8:00 PM52.0 °F37.0 °F44 %30.15 in28.0 miESE (120°)12.7 mphClear
8:00 PM51.8 °F37.4 °F58 %30.15 in30.0 miESE (120°)12.7 mph18.4 mphPartly Cloudy
9:00 PM50.0 °F35.6 °F58 %30.13 in15.0 miSE (130°)16.1 mph21.9 mphPartly Cloudy
10:00 PM48.2 °F37.4 °F66 %30.12 in15.0 miSE (140°)13.8 mph23.0 mphPartly Cloudy
11:00 PM46.4 °F35.6 °F66 %30.11 in15.0 miSE (140°)15.0 mph20.7 mphClear
Hourly data recorded from CYUL, located miles away from Montreal, Quebec







STORIES FROM OUR PARTNERS